Location: Brantley
(31.5822°N, 86.2569°W)
Time: 21:19:56
(UTC+00:00)

Transit 2A - Visible Passes

Search period start: 18 February 2026 00:00
Search period end: 28 February 2026 00:00
Orbit: 589 x 955 km, 66.7° (Epoch: 18 February)

Date Brightness Start Highest point End Pass type
(mag) Time Alt. Az. Time Alt. Az. Time Alt. Az.
21 Feb 8.5 01:48:47 10° N 01:49:12 11° N 01:49:12 11° N visible
22 Feb 8.3 01:13:31 10° NNE 01:14:14 11° NNE 01:14:14 11° NNE visible
22 Feb 8.9 02:54:24 10° NNW 02:54:36 11° NNW 02:54:36 11° NNW visible
23 Feb 8.2 02:18:05 10° NNW 02:19:43 19° NNW 02:19:43 19° NNW visible
24 Feb 7.5 01:41:56 10° N 01:44:55 27° N 01:44:55 27° N visible
25 Feb 7.2 01:05:59 10° N 01:10:13 26° NE 01:10:13 26° NE visible
25 Feb 8.5 02:48:51 10° NW 02:50:36 19° NW 02:50:36 19° NW visible
26 Feb 7.5 00:30:21 10° N 00:34:08 18° NE 00:35:38 16° ENE visible
26 Feb 7.2 02:12:09 10° NW 02:16:01 40° WNW 02:16:01 40° WNW visible
27 Feb 5.9 01:35:40 10° NNW 01:41:23 89° ENE 01:41:36 83° SE visible
